[Iaude] MPEC B71: 2019 AR14 [a=1.91,e=0.34,i=13.1,H=22.6]

mpec at mpcdb1.cfa.harvard.edu mpec at mpcdb1.cfa.harvard.edu
Fri Jan 25 16:37:16 EST 2019


M.P.E.C. 2019-B71                                Issued 2019 Jan. 25, 21:33 UT
 
     The Minor Planet Electronic Circulars contain information on unusual
         minor planets and routine data on comets.  They are published
    on behalf of Division F of the International Astronomical Union by the
          Minor Planet Center, Smithsonian Astrophysical Observatory,
                          Cambridge, MA 02138, U.S.A.

             Prepared using the Tamkin Foundation Computer Network

                              MPC at CFA.HARVARD.EDU
            URL https://www.minorplanetcenter.net/    ISSN 1523-6714


                                   2019 AR14
 
Observations:
     K19A14R* C2019 01 15.37692 09 06 36.742+44 37 09.48         21.1 iUEB071F51
     K19A14R  C2019 01 15.38348 09 06 36.143+44 36 57.35         21.4 iUEB071F51
     K19A14R  C2019 01 15.39008 09 06 35.510+44 36 45.35         21.2 iUEB071F51
     K19A14R  C2019 01 15.39670 09 06 34.884+44 36 33.25         21.4 iUEB071F51
     K19A14R  C2019 01 16.44181709 05 07.133+44 03 05.46         21.1 GVEB071F52
     K19A14R  C2019 01 16.46271309 05 05.064+44 02 25.31         22.5 GVEB071F52
     K19A14R  C2019 01 16.46595209 05 04.733+44 02 19.06         21.0 GVEB071F51
     K19A14R  C2019 01 16.47286209 05 04.075+44 02 05.75         21.5 GVEB071F51
     K19A14R  C2019 01 16.47316909 05 04.027+44 02 04.86         22.4 GVEB071F52
     K19A14R  C2019 01 16.47948409 05 03.406+44 01 52.66         21.2 GVEB071F51
     K19A14R  C2019 01 17.36380 09 03 47.97 +43 32 40.3          21.2 GVEB071V06
     K19A14R  C2019 01 17.36588 09 03 47.77 +43 32 36.1          21.1 GVEB071V06
     K19A14R  C2019 01 17.36796 09 03 47.58 +43 32 31.6          20.7 GVEB071V06
     K19A14R  C2019 01 17.37003 09 03 47.44 +43 32 27.5          21.0 GVEB071V06
     K19A14R  C2019 01 24.23143 08 53 43.08 +39 25 21.1          21.9 GVEB071I52
     K19A14R  C2019 01 24.23476 08 53 42.71 +39 25 12.6                VEB071I52
     K19A14R  C2019 01 24.23808 08 53 42.44 +39 25 04.8          20.3 GVEB071I52
     K19A14R  C2019 01 24.24140 08 53 42.12 +39 24 57.5          20.5 GVEB071I52
     K19A14R KC2019 01 24.41519908 53 26.275+39 18 24.89         21.5 GVEB071F52
     K19A14R pC2019 01 24.80443008 52 52.82 +39 03 03.7          21.5 GVEB071L01
     K19A14R KC2019 01 24.80754708 52 52.50 +39 02 57.3          21.3 GVEB071L01
     K19A14R KC2019 01 24.81066408 52 52.27 +39 02 50.2          21.4 GVEB071L01
     K19A14R KC2019 01 24.81261308 52 52.10 +39 02 45.7          21.3 GVEB071L01
     K19A14R  C2019 01 25.24846 08 52 13.23 +38 45 59.6          21.2 GVEB071I52
     K19A14R  C2019 01 25.25178 08 52 12.89 +38 45 51.7          21.3 GVEB071I52
     K19A14R  C2019 01 25.25735 08 52 12.31 +38 45 40.5          20.2 GVEB071I52
     K19A14R  C2019 01 25.26202 08 52 11.93 +38 45 28.0          21.1 GVEB071I52
     K19A14R  C2019 01 25.31838 08 52 06.28 +38 43 17.9          21.1 GVEB071V06
     K19A14R  C2019 01 25.32029 08 52 06.06 +38 43 13.3          21.2 GVEB071V06
     K19A14R  C2019 01 25.32220 08 52 05.87 +38 43 09.1          21.0 GVEB071V06
     K19A14R  C2019 01 25.32410 08 52 05.68 +38 43 04.4          21.1 GVEB071V06
     K19A14R  C2019 01 25.41297608 51 58.436+38 39 41.21         21.6 GVEB071F51
     K19A14R  C2019 01 25.41992408 51 57.760+38 39 24.77         22.1 GVEB071F51
     K19A14R  C2019 01 25.42673008 51 57.053+38 39 09.49         21.3 GVEB071F51
     K19A14R  C2019 01 25.43350608 51 56.375+38 38 53.48         21.6 GVEB071F51
 
Observer details:
F51 Pan-STARRS 1, Haleakala.  Observers J. Bulger, T. Lowe, A. Schultz,
    M. Willman, K. Chambers, E. Magnier.  Measurers K. Chambers, S. Chastel,
    L. Denneau, J. Fairlamb, H. Flewelling, M. Huber, C.-C. Lin, E. Magnier,
    Y. Ramanjooloo, R. Wainscoat, R. Weryk.  1.8-m Ritchey-Chretien + CCD.
F52 Pan-STARRS 2, Haleakala.  Observers J. Bulger, K. Chambers, T. Dukes,
    T. Lowe, E. Magnier, A. Schultz, M. Willman.  Measurers S. Chastel,
    M. Huber, Y. Ramanjooloo, R. Wainscoat, R. Weryk.  1.8-m Ritchey-Chretien
    + CCD.
I52 Steward Observatory, Mt. Lemmon Station.  Observers H. Groeller,
    B. M. Africano.  Measurers B. M. Africano, E. J. Christensen,
    G. A. Farneth, D. C. Fuls, A. R. Gibbs, A. D. Grauer, H. Groeller,
    R. A. Kowalski, S. M. Larson, G. J. Leonard, T. A. Pruyne, R. L. Seaman,
    F. C. Shelly.  1.0-m reflector + CCD.
L01 Visnjan Observatory, Tican.  Observer K. Korlevic.  1.0-m f/2.9 reflector
    + CCD.
V06 Catalina Sky Survey-Kuiper.  Observers D. C. Fuls, B. M. Africano.
    Measurers B. M. Africano, E. J. Christensen, G. A. Farneth, D. C. Fuls,
    A. R. Gibbs, A. D. Grauer, H. Groeller, R. A. Kowalski, S. M. Larson,
    G. J. Leonard, R. L. Seaman, F. C. Shelly.  1.55-m reflector + CCD.
 
Orbital elements:
2019 AR14                                                Earth MOID = 0.3180 AU
Epoch 2019 Apr. 27.0 TT = JDT 2458600.5                 MPC
M  44.01232              (2000.0)            P               Q
n   0.37196694     Peri.  136.70062     -0.23722451     -0.96330880
a   1.9148429      Node   326.43867     +0.81781425     -0.12828338
e   0.3384333      Incl.   13.12576     +0.52431325     -0.23575312
P   2.65           H   22.6           G   0.15           U   8
Residuals in seconds of arc
190115 F51  0.4-  0.5+    190117 V06  0.1-  0.1+    190125 I52  0.8-  0.2-
190115 F51  0.3-  0.3+    190117 V06  0.6+  0.2+    190125 I52  1.2-  1.4+
190115 F51  0.4-  0.3+    190124 I52  0.5-  0.7+    190125 I52  0.2-  0.3-
190115 F51  0.4-  0.3+    190124 I52  1.0-  0.3-    190125 V06  0.5-  0.2+
190116 F52  0.5-  0.3+    190124 I52  0.3-  0.6-    190125 V06  0.8-  0.0
190116 F52  0.5-  0.3+    190124 I52  0.2-  0.5-    190125 V06  0.8-  0.3+
190116 F51  0.6-  0.3+    190124 F52  0.2-  0.7+    190125 V06  0.8-  0.0
190116 F51  0.3-  0.4+    190124 L01  0.2-  0.0     190125 F51  0.5-  0.3+
190116 F52  0.5-  0.1+    190124 L01  0.6-  0.6+    190125 F51  0.2-  0.0
190116 F51  0.5-  0.2+    190124 L01  0.1+  0.6+    190125 F51  0.4-  0.5+
190117 V06  0.4-  0.5+    190124 L01  0.2+  0.5+    190125 F51  0.4-  0.3+
190117 V06  0.3-  0.4+    190125 I52  0.7-  0.1+

Ephemeris:
2019 AR14                a,e,i = 1.91, 0.34, 13                  q = 1.2668
Date    TT    R. A. (2000) Decl.     Delta      r     Elong.  Phase     V
2018 12 26    09 20 15.2 +52 19 32   0.3646  1.2672   134.8    33.4    22.3
...
2019 01 10    09 13 18.5 +47 13 43   0.3290  1.2708   146.5    25.3    21.9
...
2019 01 18    09 02 53.3 +43 11 14   0.3198  1.2783   153.7    19.9    21.7
...
2019 01 24    08 54 02.4 +39 34 14   0.3187  1.2865   158.7    16.1    21.5
2019 01 25    08 52 34.2 +38 55 41   0.3191  1.2880   159.5    15.5    21.5
2019 01 26    08 51 06.7 +38 16 33   0.3196  1.2897   160.2    15.0    21.5
...
2019 02 01    08 42 52.6 +34 12 56   0.3262  1.3005   162.8    12.9    21.5
...
2019 02 09    08 34 14.1 +28 41 12   0.3449  1.3180   161.4    13.8    21.7
...
2019 02 24    08 27 51.2 +19 23 32   0.4094  1.3588   149.7    21.5    22.4

A. U. Tomatic                (C) Copyright 2019 MPC           M.P.E.C. 2019-B71



More information about the Iaude mailing list